Home > Weather > Hollabrunn > Past weeks

Flag for Austria Weather for the Past 2 Weeks in Hollabrunn, Lower Austria, Austria

Now
42 °F

Light rain. Overcast.


Feels Like: 40 °F
Forecast: 36 / 46 °F
Wind: 3 mph from Northeast

Location: Retz

Current Time: Feb 14, 2016 at 8:26:15 PM

Latest Report: Feb 14, 2016 at 7:00 PM


Visibility: 4 mi

Pressure: 29.29 "Hg

Humidity: 95%

Dew point: 40 °F

Location of HollabrunnLocation

Historic Weather in Hollabrunn — Graph

°F

Hollabrunn Temperature Yesterday

Maximum temperature yesterday: 42 °F (at 4:00 PM)
Minimum temperature yesterday: 35 °F (at 8:00 AM)
Average temperature yesterday: 38 °F

High & Low Weather Summary for the Past Weeks

 TemperatureHumidityPressure
High55 °F (Feb 1, 7:00 PM)100% (Feb 14, 9:00 AM)30.37 "Hg (Feb 14, 9:00 AM)
Low31 °F (Feb 12, 7:00 AM)52% (Feb 5, 3:00 PM)29.26 "Hg (Feb 10, 12:00 AM)
Average41 °F79%29.81 "Hg
* Reported Jan 30 7:00 PM — Feb 14 7:00 PM, Hollabrunn, Weather by CustomWeather, © 2016

Note: Actual official high and low records may vary slightly from our data, if they occured in-between our weather recording intervals... More about our weather records

Advertising

Hollabrunn Weather History for the Previous 24 Hours

 ConditionsComfort  
Time TempWeatherWind HumidityBarometerVisibility
7:00 PM
Sun, Feb 14
42 °FLight rain. Overcast.3 mph95%29.29 "Hg4 mi
6:00 PM43 °FQuite cool.5 mph92%29.26 "HgN/A
5:00 PM43 °FQuite cool.5 mph88%29.29 "HgN/A
4:00 PM43 °FQuite cool.3 mph83%29.29 "HgN/A
3:00 PM43 °FQuite cool.5 mph80%29.29 "HgN/A
2:00 PM41 °FQuite cool.3 mph89%29.29 "HgN/A
1:00 PM38 °FLow clouds.3 mph96%29.32 "Hg2 mi
12:00 PM35 °FChilly.2 mph99%29.35 "HgN/A
11:00 AM34 °FChilly.No wind100%29.35 "HgN/A
10:00 AM33 °FChilly.2 mph99%29.35 "HgN/A
9:00 AM33 °FChilly.3 mph100%29.35 "HgN/A
8:00 AM33 °FChilly.5 mph99%29.35 "HgN/A
7:00 AM34 °FFog.5 mph99%29.32 "Hg0 mi
6:00 AM34 °FChilly.2 mph98%29.32 "HgN/A
5:00 AM34 °FChilly.3 mph98%29.32 "HgN/A
4:00 AM35 °FChilly.2 mph99%29.32 "HgN/A
3:00 AM35 °FChilly.1 mph96%29.29 "HgN/A
2:00 AM35 °FChilly.1 mph96%29.32 "HgN/A
1:00 AM34 °FChilly.3 mph97%29.29 "HgN/A
10:00 PM
Sat, Feb 13
35 °FChilly.3 mph89%29.32 "HgN/A
9:00 PM36 °FChilly.1 mph85%29.35 "HgN/A
8:00 PM37 °FChilly.2 mph82%29.35 "HgN/A
Weather by CustomWeather, © 2016

See weather overviewHow to use our weather pages